This is the latest recevied weather packets stored in our database for station/object K1KOF. If no packets are shown the sender has not sent any weather packets the latest 10 day(s).
| Time | Temp. | Humidity | Pressure | Rain* | Wind** | Luminosity | Snow |
|---|---|---|---|---|---|---|---|
| 1777647332 | 15° C | 65% | 1025.4 hPa | 0 mm | - | 176 W/m² | - |
| 1777647030 | 14.44° C | 62% | 1025.5 hPa | 0 mm | - | 174 W/m² | - |
| 1777646726 | 14.44° C | 64% | 1025.5 hPa | 0 mm | - | 108 W/m² | - |
| 1777646421 | 14.44° C | 63% | 1025.2 hPa | 0 mm | - | 81 W/m² | - |
| 1777646118 | 15° C | 64% | 1025.4 hPa | 0 mm | - | 104 W/m² | - |
| 1777645815 | 14.44° C | 65% | 1025.3 hPa | 0 mm | - | 100 W/m² | - |
| 1777645513 | 14.44° C | 66% | 1025.3 hPa | 0 mm | - | 109 W/m² | - |
| 1777645208 | 14.44° C | 63% | 1025.2 hPa | 0 mm | - | 89 W/m² | - |
| 1777644904 | 14.44° C | 63% | 1025.3 hPa | 0 mm | - | 94 W/m² | - |
| 1777644602 | 14.44° C | 64% | 1025.3 hPa | 0 mm | - | 126 W/m² | - |
| 1777644297 | 14.44° C | 62% | 1025.1 hPa | 0 mm | - | 143 W/m² | - |
| 1777643994 | 14.44° C | 65% | 1025 hPa | 0 mm | - | 126 W/m² | - |
| 1777643691 | 14.44° C | 64% | 1025 hPa | 0 mm | - | 100 W/m² | - |
| 1777643389 | 14.44° C | 62% | 1025.2 hPa | 0 mm | - | 97 W/m² | - |
| 1777643085 | 14.44° C | 64% | 1025.2 hPa | 0 mm | - | 108 W/m² | - |
| 1777642781 | 14.44° C | 62% | 1025.1 hPa | 0 mm | - | 106 W/m² | - |
| 1777642478 | 14.44° C | 62% | 1025.2 hPa | 0 mm | - | 120 W/m² | - |
| 1777642175 | 13.89° C | 64% | 1025 hPa | 0 mm | - | 108 W/m² | - |
| 1777641872 | 13.89° C | 63% | 1025 hPa | 0 mm | - | 91 W/m² | - |
| 1777641572 | 14.44° C | 64% | 1025.1 hPa | 0 mm | - | 69 W/m² | - |
| 1777641266 | 13.89° C | 63% | 1025.1 hPa | 0 mm | - | 72 W/m² | - |
| 1777640963 | 13.89° C | 64% | 1025 hPa | 0 mm | - | 59 W/m² | - |
| 1777640660 | 13.89° C | 63% | 1024.9 hPa | 0 mm | - | 48 W/m² | - |
| 1777640356 | 13.89° C | 65% | 1024.8 hPa | 0 mm | - | 49 W/m² | - |
| 1777640054 | 13.89° C | 65% | 1024.8 hPa | 0 mm | - | 38 W/m² | - |
* Rain latest hour (hover to see other rain measurements)
** Current wind speed in m/s (hover to see current wind gust speed)